Weather History for De Kooy, Netherlands

Change the Weather History Date:

Thursday, October 31, 2013

  Actual Average Record
Temperature  
Mean Temperature 51 °F -  
Max Temperature 55 °F 49 °F 63 °F (2014)
Min Temperature 47 °F 40 °F 32 °F (2008)
Degree Days  
Heating Degree Days 14    
Growing Degree Days 1 (Base 50)    
Moisture  
Dew Point 49 °F    
Average Humidity 89    
Maximum Humidity 100    
Minimum Humidity 78    
Precipitation  
Precipitation 0.16 in 0.12 in - ()
Sea Level Pressure  
Sea Level Pressure 30.02 in    
Wind  
Wind Speed 17 mph ()    
Max Wind Speed 25 mph    
Max Gust Speed 39 mph    
Visibility 5.9 miles    
Events Rain    
Averages and records for this station are not official NWS values.
T = Trace of Precipitation, MM = Missing Value Source: Averaged Metar Reports

Daily Weather History Graph

Daily Weather History Graph

Search for Another Location

Airport:

Trip Planner

Search our weather history database for the weather conditions in past years. The results will help you decide how hot, cold, wet, or windy it might be!

Date:

Astronomy

Oct. 31, 2013 Rise Set
Actual Time 7:36 AM CET 5:11 PM CET
Civil Twilight 7:00 AM CET 5:47 PM CET
Nautical Twilight 6:19 AM CET 6:28 PM CET
Astronomical Twilight 5:39 AM CET 7:08 PM CET
Moon 3:44 AM CET (10/31) 3:42 PM CET (10/31)
Length of Visible Light 10h 47m
Length of Day
9h 35m
Waning Crescent, 11% of the Moon is Illuminated
Oct 31
Waning Crescent
Nov 3
New
Nov 10
First Quarter
Nov 17
Full
Nov 25
Last Quarter

Hourly Weather History & Observations

Time (CET) Temp. Dew Point Humidity Pressure Visibility Wind Dir Wind Speed Gust Speed Precip Events Conditions
12:05 AM 50.0 °F 46.4 °F 87% 30.12 in 6.2 mi South 15.0 mph - N/A   Mostly Cloudy
12:25 AM 50.0 °F 48.2 °F 94% 30.12 in 6.2 mi South 16.1 mph - N/A   Mostly Cloudy
12:30 AM 50.0 °F 46.4 °F 87% 30.12 in 6.2 mi South 16.1 mph - N/A   Scattered Clouds
12:34 AM 50.0 °F 48.2 °F 94% 30.12 in 6.2 mi South 15.0 mph - N/A   Mostly Cloudy
12:47 AM 50.0 °F 46.4 °F 87% 30.12 in 6.2 mi South 13.8 mph - N/A   Overcast
12:55 AM 51.8 °F 48.2 °F 88% 30.12 in 6.2 mi South 13.8 mph - N/A   Mostly Cloudy
12:59 AM 51.8 °F 48.2 °F 88% 30.12 in 6.2 mi South 13.8 mph - N/A   Mostly Cloudy
1:00 AM 53 °F 49 °F 84% 30.14 in 12 mi SSW 15.7 mph - -   Partly Cloudy
1:03 AM 53.6 °F 50.0 °F 88% 30.12 in 6.2 mi SSW 15.0 mph - N/A   Mostly Cloudy
1:25 AM 53.6 °F 48.2 °F 82% 30.12 in 6.2 mi SSW 20.7 mph - N/A   Overcast
1:38 AM 53.6 °F 48.2 °F 82% 30.12 in 6.2 mi SSW 23.0 mph - N/A   Overcast
1:42 AM 53.6 °F 48.2 °F 82% 30.12 in 6.2 mi SSW 21.9 mph - N/A   Mostly Cloudy
1:46 AM 53.6 °F 48.2 °F 82% 30.12 in 6.2 mi SSW 20.7 mph - N/A   Mostly Cloudy
1:55 AM 53.6 °F 48.2 °F 82% 30.12 in 6.2 mi SSW 20.7 mph - N/A   Mostly Cloudy
2:25 AM 50.0 °F 48.2 °F 94% 30.12 in 6.2 mi South 13.8 mph - N/A   Mostly Cloudy
2:27 AM 51.8 °F 48.2 °F 88% 30.12 in 6.2 mi South 13.8 mph - N/A   Mostly Cloudy
2:33 AM 51.8 °F 48.2 °F 88% 30.12 in 6.2 mi South 15.0 mph - N/A   Mostly Cloudy
2:43 AM 51.8 °F 48.2 °F 88% 30.12 in 6.2 mi South 15.0 mph - N/A   Overcast
2:48 AM 51.8 °F 48.2 °F 88% 30.12 in 6.2 mi South 15.0 mph - N/A   Overcast
2:55 AM 51.8 °F 48.2 °F 88% 30.12 in 6.2 mi South 15.0 mph - N/A   Overcast
3:14 AM 50.0 °F 46.4 °F 87% 30.12 in 6.2 mi South 16.1 mph - N/A   Overcast
3:18 AM 50.0 °F 46.4 °F 87% 30.12 in 6.2 mi South 16.1 mph - N/A   Overcast
3:25 AM 50.0 °F 46.4 °F 87% 30.12 in 6.2 mi South 16.1 mph - N/A   Overcast
3:29 AM 50.0 °F 46.4 °F 87% 30.12 in 6.2 mi South 17.3 mph - N/A   Mostly Cloudy
3:55 AM 50.0 °F 46.4 °F 87% 30.09 in 6.2 mi South 17.3 mph - N/A   Overcast
4:00 AM 51 °F 46 °F 78% 30.12 in 16 mi South 17.9 mph - -   Overcast
4:25 AM 51.8 °F 46.4 °F 82% 30.09 in 6.2 mi SSW 17.3 mph - N/A   Overcast
4:55 AM 51.8 °F 46.4 °F 82% 30.09 in 6.2 mi South 17.3 mph - N/A   Overcast
5:25 AM 51.8 °F 46.4 °F 82% 30.09 in 6.2 mi SSW 17.3 mph - N/A   Overcast
5:55 AM 50.0 °F 46.4 °F 87% 30.09 in 6.2 mi South 15.0 mph - N/A   Overcast
6:25 AM 50.0 °F 44.6 °F 82% 30.06 in 6.2 mi South 16.1 mph - N/A   Mostly Cloudy
6:55 AM 48.2 °F 44.6 °F 87% 30.06 in 6.2 mi South 16.1 mph - N/A   Mostly Cloudy
6:56 AM 48.2 °F 44.6 °F 87% 30.06 in 6.2 mi South 13.8 mph - N/A   Mostly Cloudy
7:00 AM 49 °F 45 °F 81% 30.09 in 15 mi South 13.4 mph - -   Partly Cloudy
7:25 AM 48.2 °F 44.6 °F 87% 30.06 in 6.2 mi South 15.0 mph - N/A   Mostly Cloudy
7:55 AM 48.2 °F 44.6 °F 87% 30.06 in 6.2 mi South 13.8 mph - N/A   Mostly Cloudy
8:12 AM 48.2 °F 44.6 °F 87% 30.06 in 6.2 mi South 16.1 mph - N/A   Mostly Cloudy
8:25 AM 50.0 °F 46.4 °F 87% 30.06 in 6.2 mi South 18.4 mph - N/A   Light Drizzle
8:29 AM 50.0 °F 46.4 °F 87% 30.06 in 6.2 mi South 17.3 mph - N/A Rain Light Rain
8:31 AM 50.0 °F 46.4 °F 87% 30.06 in 6.2 mi South 17.3 mph - N/A Rain Drizzle
8:40 AM 48.2 °F 46.4 °F 93% 30.06 in 6.2 mi South 17.3 mph - N/A   Light Drizzle
8:44 AM 48.2 °F 46.4 °F 93% 30.06 in 6.2 mi South 17.3 mph - N/A   Light Drizzle
8:55 AM 48.2 °F 46.4 °F 93% 30.06 in 6.2 mi South 16.1 mph - N/A   Drizzle
9:04 AM 48.2 °F 46.4 °F 93% 30.06 in 6.2 mi South 17.3 mph - N/A   Heavy Drizzle
9:13 AM 50.0 °F 46.4 °F 87% 30.06 in 6.2 mi South 17.3 mph - N/A   Mostly Cloudy
9:25 AM 50.0 °F 46.4 °F 87% 30.06 in 6.2 mi South 18.4 mph - N/A   Mostly Cloudy
9:48 AM 50.0 °F 46.4 °F 87% 30.06 in 6.2 mi South 18.4 mph - N/A   Overcast
9:55 AM 50.0 °F 46.4 °F 87% 30.06 in 6.2 mi South 18.4 mph - N/A   Overcast
10:00 AM 50 °F 47 °F 85% 30.07 in 15 mi South 17.9 mph - - Rain Rain
10:25 AM 51.8 °F 48.2 °F 88% 30.06 in 6.2 mi South 19.6 mph - N/A   Mostly Cloudy
10:27 AM 51.8 °F 48.2 °F 88% 30.06 in 6.2 mi South 19.6 mph - N/A   Mostly Cloudy
10:32 AM 51.8 °F 48.2 °F 88% 30.06 in 6.2 mi South 20.7 mph - N/A   Mostly Cloudy
10:35 AM 51.8 °F 48.2 °F 88% 30.06 in 6.2 mi South 20.7 mph - N/A   Mostly Cloudy
10:37 AM 51.8 °F 48.2 °F 88% 30.06 in 6.2 mi South 20.7 mph - N/A   Overcast
10:55 AM 51.8 °F 48.2 °F 88% 30.06 in 6.2 mi South 21.9 mph - N/A   Overcast
11:11 AM 53.6 °F 48.2 °F 82% 30.04 in 6.2 mi SSW 20.7 mph - N/A   Overcast
11:15 AM 53.6 °F 48.2 °F 82% 30.04 in 6.2 mi SSW 21.9 mph - N/A   Overcast
11:19 AM 53.6 °F 48.2 °F 82% 30.04 in 6.2 mi SSW 21.9 mph - N/A   Overcast
11:25 AM 53.6 °F 50.0 °F 88% 30.04 in 6.2 mi SSW 20.7 mph - N/A   Overcast
11:27 AM 53.6 °F 48.2 °F 82% 30.04 in 6.2 mi SSW 21.9 mph - N/A   Overcast
11:31 AM 53.6 °F 48.2 °F 82% 30.04 in 6.2 mi SSW 23.0 mph - N/A   Overcast
11:37 AM 53.6 °F 48.2 °F 82% 30.04 in 6.2 mi SSW 23.0 mph - N/A   Overcast
11:42 AM 53.6 °F 48.2 °F 82% 30.04 in 6.2 mi SSW 24.2 mph - N/A   Overcast
11:46 AM 53.6 °F 48.2 °F 82% 30.04 in 6.2 mi SSW 24.2 mph - N/A   Overcast
11:55 AM 53.6 °F 48.2 °F 82% 30.04 in 6.2 mi SSW 23.0 mph - N/A   Mostly Cloudy
11:58 AM 53.6 °F 48.2 °F 82% 30.04 in 6.2 mi SSW 24.2 mph - N/A   Overcast
12:02 PM 53.6 °F 48.2 °F 82% 30.04 in 6.2 mi SSW 25.3 mph - N/A   Overcast
12:06 PM 53.6 °F 48.2 °F 82% 30.04 in 6.2 mi SSW 25.3 mph - N/A   Overcast
12:07 PM 53.6 °F 48.2 °F 82% 30.04 in 6.2 mi SSW 25.3 mph - N/A   Mostly Cloudy
12:11 PM 53.6 °F 48.2 °F 82% 30.04 in 3.1 mi SSW 25.3 mph - N/A   Mostly Cloudy
12:13 PM 51.8 °F 50.0 °F 94% 30.04 in - SSW 25.3 mph - N/A Rain Light Rain
12:18 PM 51.8 °F 50.0 °F 94% 30.04 in 3.1 mi SSW 25.3 mph - N/A Rain Light Rain
12:25 PM 51.8 °F 50.0 °F 94% 30.04 in 6.2 mi SSW 25.3 mph - N/A Rain Light Rain
12:32 PM 51.8 °F 50.0 °F 94% 30.04 in 6.2 mi SSW 25.3 mph - N/A Rain Light Rain
12:36 PM 51.8 °F 50.0 °F 94% 30.04 in 6.2 mi SSW 25.3 mph - N/A Rain Light Rain
12:47 PM 53.6 °F 50.0 °F 88% 30.04 in 6.2 mi SSW 24.2 mph - N/A   Mostly Cloudy
12:55 PM 53.6 °F 50.0 °F 88% 30.01 in 6.2 mi SSW 25.3 mph - N/A   Mostly Cloudy
12:57 PM 53.6 °F 50.0 °F 88% 30.01 in 6.2 mi SSW 24.2 mph - N/A   Mostly Cloudy
1:25 PM 53.6 °F 50.0 °F 88% 30.01 in 6.2 mi SSW 23.0 mph - N/A   Mostly Cloudy
1:27 PM 53.6 °F 50.0 °F 88% 30.01 in 6.2 mi SSW 23.0 mph - N/A   Mostly Cloudy
1:31 PM 53.6 °F 50.0 °F 88% 30.01 in 6.2 mi SSW 21.9 mph - N/A   Overcast
1:55 PM 53.6 °F 50.0 °F 88% 30.01 in 6.2 mi SSW 25.3 mph - N/A   Overcast
1:57 PM 53.6 °F 50.0 °F 88% 30.01 in 6.2 mi SSW 24.2 mph - N/A   Overcast
2:01 PM 53.6 °F 50.0 °F 88% 30.01 in 6.2 mi SSW 23.0 mph - N/A Rain Light Rain
2:05 PM 53.6 °F 50.0 °F 88% 30.01 in 3.7 mi SSW 24.2 mph - N/A Rain Light Rain
2:16 PM 51.8 °F 50.0 °F 94% 30.01 in 3.7 mi SSW 24.2 mph - N/A Rain Light Rain Showers
2:25 PM 51.8 °F 50.0 °F 94% 30.01 in 3.7 mi SSW 23.0 mph - N/A Rain Light Rain
2:27 PM 51.8 °F 50.0 °F 94% 29.98 in 5.0 mi SSW 21.9 mph - N/A Rain Light Rain
2:31 PM 51.8 °F 50.0 °F 94% 29.98 in 3.7 mi SSW 20.7 mph - N/A Rain Light Rain
2:38 PM 51.8 °F 50.0 °F 94% 29.98 in 4.3 mi SSW 19.6 mph - N/A Rain Light Rain
2:55 PM 51.8 °F 50.0 °F 94% 29.98 in 4.3 mi SSW 20.7 mph - N/A Rain Light Rain
3:16 PM 51.8 °F 50.0 °F 94% 29.98 in - SSW 19.6 mph - N/A   Drizzle
3:23 PM 51.8 °F 51.8 °F 100% 29.98 in - SSW 18.4 mph 29.9 mph N/A Rain Rain
3:25 PM 51.8 °F 50.0 °F 94% 29.98 in - SSW 18.4 mph - N/A   Heavy Drizzle
3:37 PM 53.6 °F 50.0 °F 88% 29.98 in 3.7 mi SSW 25.3 mph 39.1 mph N/A   Overcast
3:46 PM 53.6 °F 50.0 °F 88% 29.98 in - SSW 24.2 mph 39.1 mph N/A Rain Light Rain
3:55 PM 53.6 °F 50.0 °F 88% 29.98 in 2.5 mi SSW 23.0 mph - N/A Rain Rain
4:00 PM 53 °F 51 °F 88% 29.99 in 2 mi SSW 22.4 mph - - Rain Drizzle
4:04 PM 53.6 °F 50.0 °F 88% 29.98 in 2.8 mi SSW 24.2 mph - N/A   Drizzle
4:07 PM 53.6 °F 50.0 °F 88% 29.98 in 2.8 mi SSW 24.2 mph - N/A   Drizzle
4:25 PM 53.6 °F 50.0 °F 88% 29.98 in 4.3 mi SSW 24.2 mph - N/A Rain Light Rain
4:27 PM 53.6 °F 50.0 °F 88% 29.98 in 3.1 mi SSW 24.2 mph - N/A Rain Rain
4:43 PM 53.6 °F 51.8 °F 94% 29.98 in 3.1 mi SSW 24.2 mph 35.7 mph N/A Rain Light Rain
4:55 PM 53.6 °F 51.8 °F 94% 29.98 in 5.0 mi SSW 21.9 mph - N/A Rain Light Rain
4:59 PM 53.6 °F 51.8 °F 94% 29.98 in - SSW 20.7 mph - N/A   Overcast
5:02 PM 53.6 °F 51.8 °F 94% 29.98 in - SSW 20.7 mph - N/A   Overcast
5:18 PM 53.6 °F 50.0 °F 88% 29.98 in 3.1 mi SSW 23.0 mph - N/A   Heavy Drizzle
5:25 PM 53.6 °F 51.8 °F 94% 29.98 in 3.7 mi SSW 23.0 mph - N/A   Drizzle
5:33 PM 53.6 °F 51.8 °F 94% 29.95 in - SSW 21.9 mph - N/A Rain Rain
5:43 PM 53.6 °F 51.8 °F 94% 29.95 in - SSW 23.0 mph - N/A Rain Light Rain
5:49 PM 53.6 °F 51.8 °F 94% 29.95 in - SW 21.9 mph 34.5 mph N/A   Heavy Drizzle
5:55 PM 53.6 °F 51.8 °F 94% 29.98 in - SW 21.9 mph 34.5 mph N/A   Heavy Drizzle
5:57 PM 53.6 °F 51.8 °F 94% 29.98 in - WSW 18.4 mph - N/A Rain Heavy Rain Showers
6:01 PM 53.6 °F 51.8 °F 94% 29.98 in 3.1 mi WSW 17.3 mph 28.8 mph N/A Rain Light Rain
6:10 PM 51.8 °F 51.8 °F 100% 29.98 in 3.1 mi WSW 15.0 mph - N/A Rain Light Rain
6:14 PM 51.8 °F 51.8 °F 100% 29.98 in 3.1 mi WSW 13.8 mph - N/A Rain Light Rain
6:18 PM 51.8 °F 51.8 °F 100% 29.98 in - WSW 12.7 mph - N/A Rain Light Rain
6:25 PM 51.8 °F 51.8 °F 100% 29.98 in 2.5 mi WSW 11.5 mph - N/A Rain Light Rain
6:28 PM 51.8 °F 51.8 °F 100% 29.98 in 3.1 mi WSW 10.4 mph - N/A   Drizzle
6:33 PM 51.8 °F 51.8 °F 100% 29.95 in 5.0 mi SW 10.4 mph - N/A   Drizzle
6:42 PM 51.8 °F 51.8 °F 100% 29.95 in 4.3 mi SW 10.4 mph - N/A   Overcast
6:45 PM 51.8 °F 51.8 °F 100% 29.95 in 4.3 mi SW 10.4 mph - N/A   Overcast
6:49 PM 51.8 °F 51.8 °F 100% 29.95 in 6.2 mi SSW 10.4 mph - N/A   Overcast
6:55 PM 51.8 °F 51.8 °F 100% 29.95 in 6.2 mi SSW 11.5 mph - N/A   Overcast
7:00 PM 53 °F 51 °F 92% 29.97 in 6 mi SSW 11.2 mph - - Rain Light Drizzle
7:02 PM 51.8 °F 51.8 °F 100% 29.95 in 4.3 mi SSW 11.5 mph - N/A   Drizzle
7:06 PM 51.8 °F 51.8 °F 100% 29.95 in 5.6 mi SSW 11.5 mph - N/A   Drizzle
7:10 PM 51.8 °F 50.0 °F 94% 29.95 in 4.3 mi SSW 15.0 mph - N/A   Drizzle
7:13 PM 51.8 °F 50.0 °F 94% 29.95 in 4.3 mi SSW 15.0 mph - N/A   Drizzle
7:18 PM 51.8 °F 50.0 °F 94% 29.95 in 6.2 mi SSW 16.1 mph - N/A   Drizzle
7:25 PM 51.8 °F 50.0 °F 94% 29.95 in 6.2 mi SSW 15.0 mph - N/A   Overcast
7:28 PM 51.8 °F 50.0 °F 94% 29.95 in 6.2 mi SW 13.8 mph - N/A   Mostly Cloudy
7:36 PM 51.8 °F 50.0 °F 94% 29.95 in 6.2 mi SSW 12.7 mph - N/A   Overcast
7:45 PM 51.8 °F 51.8 °F 100% 29.95 in 6.2 mi SSW 12.7 mph - N/A   Mostly Cloudy
7:55 PM 51.8 °F 51.8 °F 100% 29.95 in 6.2 mi SSW 11.5 mph - N/A   Mostly Cloudy
8:06 PM 51.8 °F 51.8 °F 100% 29.95 in 6.2 mi SSW 12.7 mph - N/A   Overcast
8:24 PM 53.6 °F 50.0 °F 88% 29.95 in 6.2 mi SSW 16.1 mph - N/A   Mostly Cloudy
8:25 PM 53.6 °F 50.0 °F 88% 29.95 in 6.2 mi SSW 16.1 mph - N/A   Mostly Cloudy
8:27 PM 53.6 °F 50.0 °F 88% 29.95 in 6.2 mi SSW 16.1 mph - N/A   Mostly Cloudy
8:55 PM 53.6 °F 50.0 °F 88% 29.95 in 6.2 mi SSW 16.1 mph - N/A   Overcast
9:25 PM 53.6 °F 51.8 °F 94% 29.95 in 6.2 mi SSW 13.8 mph - N/A   Mostly Cloudy
9:55 PM 55.4 °F 51.8 °F 88% 29.95 in 6.2 mi SW 15.0 mph - N/A   Mostly Cloudy
10:00 PM 55 °F 52 °F 84% 29.95 in 11 mi SW 15.7 mph - -   Scattered Clouds
10:12 PM 55.4 °F 51.8 °F 88% 29.95 in 6.2 mi SW 15.0 mph - N/A   Mostly Cloudy
10:16 PM 55.4 °F 51.8 °F 88% 29.95 in 6.2 mi SW 15.0 mph - N/A   Mostly Cloudy
10:25 PM 55.4 °F 51.8 °F 88% 29.95 in 6.2 mi SW 16.1 mph - N/A   Mostly Cloudy
10:28 PM 55.4 °F 51.8 °F 88% 29.95 in 6.2 mi SW 16.1 mph - N/A   Mostly Cloudy
10:32 PM 55.4 °F 51.8 °F 88% 29.95 in 6.2 mi SW 16.1 mph - N/A   Mostly Cloudy
10:41 PM 55.4 °F 50.0 °F 82% 29.95 in 6.2 mi WSW 18.4 mph - N/A   Partly Cloudy
10:55 PM 55.4 °F 50.0 °F 82% 29.95 in 6.2 mi WSW 18.4 mph - N/A   Partly Cloudy
11:25 PM 55.4 °F 50.0 °F 82% 29.95 in 6.2 mi WSW 18.4 mph - N/A   Partly Cloudy
11:29 PM 55.4 °F 50.0 °F 82% 29.95 in 6.2 mi WSW 18.4 mph - N/A   Scattered Clouds
11:33 PM 55.4 °F 50.0 °F 82% 29.95 in 6.2 mi WSW 17.3 mph - N/A   Mostly Cloudy
11:55 PM 55.4 °F 50.0 °F 82% 29.95 in 6.2 mi SW 18.4 mph - N/A   Mostly Cloudy
11:57 PM 55.4 °F 50.0 °F 82% 29.95 in 6.2 mi WSW 19.6 mph - N/A   Mostly Cloudy